QPF
0.00 0.01 0.04 0.05 0.11 0.15 0.10 0.04 0.02 0.01 0.01 0.01 0.01 0.01 0.01 0.00 0.02 0.05 0.02 0.01 0.01 0.00 0.00 0.00 0.00 0.00 0.00 0.00 0.00 0.00 0.00 0.00 0.00 0.00 0.01 0.01 0.01 0.00 0.01 0.01 0.01 0.01 0.02 0.03 0.04 0.02 0.02 0.02 0.02
0.00 0.02 0.03 0.06 0.17 0.13 0.05 0.02 0.01 0.01 0.00 0.00 0.01 0.01 0.01 0.01 0.01 0.01 0.01 0.02 0.01 0.00 0.00 0.00 0.00 0.00 0.00 0.00 0.00 0.00 0.00 0.01 0.01 0.01 0.01 0.01 0.01 0.01 0.01 0.01 0.01 0.01 0.01 0.02 0.02 0.01 0.02 0.02 0.02
0.01 0.02 0.04 0.07 0.13 0.07 0.02 0.02 0.01 0.01 0.00 0.00 0.01 0.02 0.03 0.01 0.01 0.01 0.01 0.02 0.02 0.01 0.00 0.00 0.00 0.00 0.00 0.00 0.01 0.01 0.00 0.00 0.01 0.01 0.01 0.02 0.01 0.01 0.01 0.01 0.01 0.01 0.01 0.01 0.01 0.01 0.01 0.02 0.02
0.01 0.02 0.03 0.06 0.05 0.02 0.01 0.02 0.02 0.01 0.00 0.01 0.02 0.02 0.02 0.03 0.01 0.00 0.01 0.01 0.01 0.00 0.00 0.00 0.00 0.00 0.00 0.00 0.01 0.01 0.01 0.01 0.01 0.01 0.01 0.01 0.01 0.01 0.01 0.01 0.01 0.01 0.01 0.01 0.01 0.01 0.01 0.01 0.02
0.02 0.03 0.03 0.03 0.02 0.02 0.01 0.02 0.03 0.01 0.00 0.01 0.03 0.06 0.04 0.02 0.01 0.01 0.01 0.02 0.01 0.01 0.00 0.00 0.00 0.00 0.00 0.00 0.01 0.01 0.01 0.01 0.01 0.01 0.01 0.01 0.01 0.01 0.01 0.01 0.01 0.01 0.01 0.00 0.00 0.01 0.01 0.01 0.02
0.03 0.06 0.03 0.02 0.01 0.02 0.02 0.02 0.02 0.01 0.01 0.01 0.03 0.06 0.04 0.03 0.03 0.02 0.02 0.02 0.03 0.04 0.01 0.00 0.00 0.00 0.00 0.00 0.01 0.01 0.01 0.00 0.01 0.01 0.01 0.01 0.01 0.01 0.01 0.01 0.01 0.01 0.00 0.00 0.00 0.01 0.01 0.01 0.02
0.02 0.02 0.02 0.02 0.02 0.01 0.02 0.02 0.02 0.01 0.01 0.01 0.02 0.08 0.10 0.04 0.03 0.03 0.03 0.03 0.05 0.03 0.01 0.00 0.00 0.00 0.01 0.01 0.01 0.01 0.00 0.01 0.01 0.01 0.01 0.01 0.01 0.01 0.01 0.01 0.01 0.00 0.00 0.00 0.00 0.00 0.00 0.01 0.01
0.00 0.00 0.00 0.02 0.01 0.01 0.01 0.01 0.01 0.01 0.01 0.01 0.01 0.04 0.05 0.05 0.03 0.03 0.04 0.04 0.10 0.03 0.03 0.01 0.01 0.00 0.01 0.01 0.01 0.01 0.01 0.01 0.01 0.01 0.01 0.01 0.01 0.02 0.01 0.01 0.01 0.00 0.00 0.00 0.00 0.00 0.00 0.01 0.01
0.00 0.00 0.00 0.00 0.01 0.01 0.01 0.01 0.01 0.01 0.01 0.01 0.02 0.03 0.03 0.07 0.05 0.03 0.02 0.03 0.07 0.03 0.02 0.01 0.00 0.00 0.00 0.00 0.01 0.02 0.02 0.02 0.02 0.02 0.02 0.01 0.01 0.01 0.01 0.01 0.01 0.01 0.01 0.00 0.00 0.00 0.01 0.01 0.01
0.00 0.00 0.00 0.00 0.00 0.01 0.01 0.01 0.01 0.01 0.02 0.02 0.05 0.06 0.03 0.03 0.02 0.02 0.01 0.02 0.04 0.04 0.02 0.01 0.00 0.00 0.00 0.00 0.00 0.01 0.01 0.01 0.02 0.02 0.01 0.01 0.01 0.01 0.01 0.01 0.01 0.02 0.01 0.01 0.01 0.01 0.01 0.01 0.01
0.00 0.00 0.00 0.00 0.00 0.00 0.01 0.01 0.01 0.01 0.03 0.05 0.08 0.05 0.02 0.02 0.01 0.02 0.01 0.03 0.03 0.03 0.03 0.02 0.00 0.00 0.00 0.00 0.00 0.01 0.01 0.01 0.01 0.01 0.02 0.02 0.01 0.01 0.01 0.00 0.01 0.01 0.01 0.00 0.01 0.01 0.02 0.03 0.05
0.00 0.00 0.00 0.00 0.00 0.00 0.00 0.01 0.01 0.01 0.01 0.02 0.03 0.01 0.01 0.01 0.01 0.01 0.01 0.03 0.04 0.03 0.04 0.04 0.03 0.03 0.01 0.00 0.00 0.01 0.01 0.01 0.01 0.01 0.02 0.01 0.01 0.02 0.01 0.01 0.00 0.00 0.00 0.01 0.02 0.02 0.04 0.05 0.06
0.00 0.00 0.00 0.00 0.00 0.00 0.00 0.00 0.01 0.00 0.00 0.01 0.04 0.02 0.02 0.02 0.01 0.02 0.02 0.03 0.03 0.04 0.04 0.05 0.05 0.05 0.04 0.02 0.01 0.01 0.01 0.02 0.02 0.02 0.02 0.01 0.02 0.02 0.02 0.02 0.01 0.01 0.01 0.01 0.02 0.03 0.04 0.05 0.07
0.00 0.00 0.00 0.00 0.00 0.00 0.00 0.00 0.00 0.00 0.00 0.01 0.03 0.01 0.02 0.02 0.02 0.02 0.02 0.03 0.03 0.04 0.03 0.04 0.06 0.07 0.08 0.05 0.02 0.02 0.02 0.02 0.02 0.03 0.04 0.02 0.02 0.02 0.02 0.02 0.03 0.03 0.02 0.03 0.03 0.03 0.04 0.05 0.06
0.00 0.00 0.00 0.00 0.00 0.00 0.00 0.00 0.00 0.01 0.01 0.03 0.03 0.02 0.02 0.02 0.02 0.01 0.01 0.02 0.03 0.04 0.03 0.05 0.06 0.08 0.09 0.08 0.04 0.04 0.03 0.03 0.02 0.03 0.05 0.04 0.03 0.02 0.02 0.03 0.03 0.03 0.03 0.04 0.03 0.03 0.03 0.05 0.06
0.00 0.00 0.00 0.00 0.00 0.00 0.01 0.00 0.00 0.01 0.01 0.02 0.06 0.06 0.03 0.03 0.03 0.02 0.02 0.03 0.04 0.04 0.05 0.06 0.06 0.07 0.08 0.10 0.08 0.09 0.08 0.04 0.03 0.03 0.03 0.03 0.04 0.04 0.03 0.03 0.02 0.03 0.03 0.02 0.02 0.02 0.03 0.03 0.04
0.00 0.00 0.00 0.00 0.01 0.01 0.01 0.01 0.01 0.02 0.02 0.01 0.03 0.05 0.05 0.05 0.04 0.04 0.04 0.04 0.04 0.04 0.05 0.07 0.08 0.06 0.06 0.09 0.11 0.12 0.15 0.07 0.04 0.04 0.02 0.03 0.03 0.04 0.05 0.03 0.02 0.03 0.03 0.03 0.04 0.02 0.02 0.02 0.03
0.00 0.00 0.00 0.01 0.01 0.01 0.01 0.01 0.01 0.02 0.02 0.01 0.04 0.05 0.05 0.05 0.05 0.06 0.07 0.08 0.09 0.11 0.10 0.09 0.10 0.09 0.08 0.11 0.13 0.12 0.11 0.08 0.06 0.06 0.05 0.03 0.03 0.04 0.05 0.03 0.02 0.02 0.02 0.04 0.04 0.04 0.03 0.02 0.03
0.00 0.01 0.00 0.01 0.01 0.01 0.01 0.01 0.02 0.02 0.02 0.03 0.07 0.10 0.08 0.07 0.06 0.06 0.10 0.13 0.14 0.15 0.14 0.10 0.11 0.11 0.10 0.10 0.10 0.11 0.10 0.10 0.08 0.08 0.08 0.04 0.03 0.03 0.03 0.03 0.02 0.02 0.02 0.02 0.02 0.03 0.03 0.03 0.04
0.00 0.00 0.00 0.01 0.02 0.02 0.01 0.01 0.02 0.02 0.03 0.03 0.05 0.07 0.11 0.14 0.09 0.06 0.11 0.14 0.16 0.13 0.11 0.12 0.11 0.12 0.12 0.09 0.07 0.08 0.11 0.13 0.13 0.13 0.13 0.06 0.04 0.03 0.02 0.02 0.02 0.02 0.02 0.02 0.01 0.02 0.03 0.02 0.02
0.00 0.00 0.00 0.01 0.01 0.02 0.02 0.02 0.02 0.03 0.04 0.05 0.07 0.08 0.08 0.14 0.13 0.07 0.07 0.11 0.13 0.13 0.11 0.11 0.13 0.15 0.16 0.15 0.14 0.11 0.11 0.15 0.17 0.14 0.11 0.06 0.04 0.04 0.02 0.02 0.03 0.03 0.02 0.01 0.01 0.01 0.02 0.01 0.01
0.00 0.00 0.00 0.00 0.01 0.02 0.03 0.04 0.06 0.05 0.05 0.07 0.08 0.09 0.08 0.08 0.07 0.07 0.08 0.10 0.09 0.10 0.12 0.14 0.20 0.20 0.19 0.17 0.14 0.08 0.06 0.07 0.08 0.07 0.07 0.05 0.05 0.05 0.04 0.03 0.04 0.04 0.03 0.02 0.01 0.01 0.01 0.01 0.01
0.00 0.00 0.00 0.00 0.01 0.02 0.03 0.04 0.05 0.05 0.04 0.05 0.07 0.12 0.10 0.08 0.08 0.07 0.08 0.11 0.11 0.11 0.13 0.17 0.24 0.24 0.21 0.18 0.14 0.10 0.07 0.07 0.09 0.09 0.08 0.06 0.05 0.05 0.04 0.05 0.05 0.04 0.03 0.03 0.02 0.01 0.01 0.01 0.01
0.00 0.00 0.00 0.00 0.01 0.01 0.02 0.03 0.05 0.03 0.03 0.05 0.07 0.09 0.10 0.08 0.09 0.10 0.11 0.13 0.11 0.12 0.14 0.17 0.21 0.22 0.22 0.22 0.20 0.16 0.11 0.10 0.11 0.09 0.07 0.07 0.08 0.07 0.05 0.05 0.05 0.03 0.02 0.02 0.02 0.01 0.01 0.01 0.01
0.00 0.00 0.00 0.00 0.01 0.02 0.01 0.03 0.06 0.04 0.04 0.03 0.06 0.09 0.09 0.09 0.07 0.08 0.10 0.09 0.10 0.11 0.12 0.13 0.16 0.19 0.22 0.23 0.22 0.22 0.16 0.13 0.13 0.12 0.08 0.07 0.07 0.05 0.05 0.04 0.04 0.03 0.02 0.02 0.02 0.01 0.01 0.01 0.01
0.00 0.00 0.00 0.01 0.02 0.03 0.03 0.07 0.13 0.08 0.05 0.06 0.06 0.09 0.11 0.10 0.06 0.05 0.06 0.07 0.07 0.08 0.11 0.10 0.13 0.16 0.19 0.21 0.21 0.22 0.20 0.17 0.15 0.15 0.13 0.09 0.06 0.05 0.05 0.05 0.04 0.03 0.02 0.01 0.02 0.02 0.01 0.01 0.01
0.00 0.00 0.00 0.01 0.04 0.07 0.06 0.09 0.11 0.08 0.08 0.11 0.13 0.12 0.12 0.12 0.05 0.04 0.06 0.08 0.09 0.09 0.12 0.13 0.14 0.16 0.15 0.16 0.20 0.21 0.20 0.17 0.17 0.15 0.13 0.11 0.08 0.07 0.07 0.06 0.05 0.03 0.02 0.01 0.01 0.01 0.01 0.01 0.01
0.00 0.00 0.01 0.01 0.04 0.08 0.09 0.10 0.17 0.12 0.08 0.07 0.11 0.18 0.09 0.09 0.07 0.04 0.04 0.06 0.11 0.16 0.15 0.15 0.16 0.15 0.16 0.16 0.16 0.17 0.16 0.16 0.17 0.16 0.13 0.10 0.08 0.07 0.09 0.09 0.06 0.04 0.03 0.02 0.01 0.01 0.01 0.01 0.01
0.00 0.00 0.01 0.02 0.02 0.05 0.10 0.13 0.14 0.09 0.08 0.09 0.12 0.20 0.16 0.11 0.08 0.05 0.04 0.04 0.06 0.08 0.12 0.12 0.11 0.10 0.10 0.12 0.14 0.16 0.16 0.19 0.19 0.16 0.11 0.09 0.07 0.05 0.07 0.08 0.06 0.05 0.04 0.03 0.02 0.01 0.01 0.02 0.02
0.00 0.00 0.01 0.02 0.03 0.04 0.06 0.07 0.07 0.06 0.10 0.12 0.13 0.17 0.17 0.17 0.13 0.08 0.06 0.04 0.04 0.06 0.11 0.12 0.09 0.07 0.06 0.08 0.11 0.13 0.13 0.14 0.15 0.15 0.13 0.10 0.07 0.05 0.06 0.07 0.06 0.05 0.04 0.04 0.02 0.01 0.01 0.01 0.01
MSLP
1008.31 1009.33 1010.51 1011.63 1012.48 1012.89 1012.80 1012.25 1011.37 1010.38 1009.48 1008.86 1008.61 1008.73 1009.14 1009.68 1010.21 1010.60 1010.80 1010.81 1010.72 1010.63 1010.64 1010.82 1011.17 1011.66 1012.18 1012.66 1013.02 1013.22 1013.29 1013.26 1013.24 1013.27 1013.40 1013.64 1013.94 1014.27 1014.55 1014.74 1014.84 1014.85 1014.82 1014.80 1014.84 1014.95 1015.14 1015.39 1015.65
1008.81 1010.05 1011.34 1012.44 1013.16 1013.35 1013.00 1012.18 1011.06 1009.87 1008.83 1008.12 1007.82 1007.91 1008.31 1008.87 1009.43 1009.88 1010.15 1010.26 1010.29 1010.32 1010.45 1010.72 1011.15 1011.68 1012.23 1012.72 1013.09 1013.31 1013.41 1013.43 1013.46 1013.54 1013.71 1013.97 1014.27 1014.57 1014.81 1014.97 1015.03 1015.03 1015.01 1015.02 1015.08 1015.22 1015.43 1015.68 1015.94
1009.45 1010.82 1012.12 1013.14 1013.67 1013.63 1013.03 1011.98 1010.69 1009.37 1008.28 1007.55 1007.26 1007.37 1007.79 1008.37 1008.95 1009.43 1009.75 1009.93 1010.04 1010.16 1010.37 1010.72 1011.19 1011.74 1012.29 1012.78 1013.14 1013.38 1013.51 1013.58 1013.66 1013.79 1013.99 1014.25 1014.53 1014.80 1015.01 1015.13 1015.18 1015.18 1015.18 1015.22 1015.32 1015.50 1015.73 1015.99 1016.25
1010.14 1011.54 1012.77 1013.62 1013.93 1013.66 1012.84 1011.64 1010.25 1008.92 1007.85 1007.19 1006.97 1007.14 1007.60 1008.19 1008.78 1009.27 1009.61 1009.83 1009.99 1010.17 1010.43 1010.81 1011.30 1011.84 1012.37 1012.83 1013.19 1013.43 1013.58 1013.69 1013.81 1013.97 1014.19 1014.45 1014.72 1014.96 1015.13 1015.23 1015.28 1015.30 1015.34 1015.42 1015.58 1015.79 1016.05 1016.32 1016.57
1010.81 1012.14 1013.20 1013.81 1013.88 1013.38 1012.41 1011.13 1009.75 1008.50 1007.56 1007.02 1006.92 1007.18 1007.68 1008.28 1008.86 1009.33 1009.67 1009.90 1010.09 1010.31 1010.60 1010.99 1011.47 1011.98 1012.47 1012.89 1013.21 1013.44 1013.60 1013.74 1013.89 1014.08 1014.31 1014.57 1014.82 1015.03 1015.19 1015.28 1015.34 1015.39 1015.48 1015.62 1015.83 1016.08 1016.37 1016.64 1016.89
1011.37 1012.51 1013.32 1013.66 1013.48 1012.80 1011.73 1010.46 1009.18 1008.10 1007.35 1007.00 1007.04 1007.38 1007.92 1008.52 1009.06 1009.50 1009.82 1010.06 1010.27 1010.51 1010.83 1011.22 1011.68 1012.15 1012.58 1012.95 1013.23 1013.43 1013.58 1013.73 1013.90 1014.12 1014.37 1014.63 1014.87 1015.07 1015.22 1015.31 1015.39 1015.48 1015.61 1015.81 1016.06 1016.35 1016.66 1016.93 1017.17
1011.70 1012.59 1013.10 1013.16 1012.75 1011.93 1010.85 1009.66 1008.56 1007.70 1007.18 1007.03 1007.21 1007.63 1008.18 1008.75 1009.25 1009.64 1009.94 1010.18 1010.41 1010.69 1011.03 1011.44 1011.88 1012.31 1012.70 1013.00 1013.23 1013.41 1013.55 1013.71 1013.91 1014.14 1014.41 1014.68 1014.92 1015.12 1015.26 1015.36 1015.45 1015.57 1015.73 1015.97 1016.25 1016.57 1016.88 1017.16 1017.38
1011.75 1012.35 1012.56 1012.35 1011.75 1010.86 1009.82 1008.78 1007.89 1007.29 1007.01 1007.05 1007.35 1007.81 1008.35 1008.86 1009.29 1009.63 1009.91 1010.16 1010.44 1010.77 1011.16 1011.60 1012.04 1012.45 1012.80 1013.06 1013.25 1013.40 1013.55 1013.72 1013.94 1014.21 1014.50 1014.79 1015.04 1015.23 1015.37 1015.47 1015.56 1015.68 1015.86 1016.11 1016.40 1016.73 1017.04 1017.32 1017.53
1011.51 1011.82 1011.75 1011.32 1010.60 1009.69 1008.74 1007.89 1007.24 1006.88 1006.81 1007.00 1007.38 1007.85 1008.33 1008.76 1009.12 1009.42 1009.68 1009.97 1010.30 1010.71 1011.17 1011.66 1012.13 1012.54 1012.87 1013.11 1013.28 1013.42 1013.58 1013.78 1014.04 1014.34 1014.67 1014.98 1015.24 1015.44 1015.56 1015.65 1015.73 1015.84 1016.00 1016.23 1016.52 1016.83 1017.14 1017.41 1017.63
1011.03 1011.09 1010.81 1010.22 1009.43 1008.56 1007.74 1007.08 1006.65 1006.50 1006.59 1006.88 1007.27 1007.70 1008.10 1008.45 1008.73 1008.99 1009.26 1009.59 1010.00 1010.50 1011.05 1011.60 1012.12 1012.55 1012.89 1013.13 1013.31 1013.47 1013.65 1013.89 1014.19 1014.54 1014.91 1015.25 1015.53 1015.72 1015.84 1015.90 1015.95 1016.03 1016.16 1016.35 1016.61 1016.90 1017.20 1017.47 1017.70
1010.42 1010.30 1009.86 1009.19 1008.39 1007.60 1006.91 1006.43 1006.18 1006.18 1006.37 1006.69 1007.05 1007.41 1007.71 1007.96 1008.17 1008.40 1008.69 1009.08 1009.57 1010.16 1010.80 1011.43 1012.00 1012.47 1012.83 1013.10 1013.30 1013.49 1013.72 1014.01 1014.37 1014.77 1015.18 1015.55 1015.84 1016.04 1016.15 1016.19 1016.21 1016.24 1016.32 1016.47 1016.69 1016.95 1017.24 1017.52 1017.78
1009.84 1009.60 1009.07 1008.36 1007.60 1006.89 1006.33 1005.98 1005.86 1005.95 1006.17 1006.46 1006.75 1007.00 1007.20 1007.36 1007.52 1007.73 1008.05 1008.50 1009.07 1009.74 1010.45 1011.14 1011.77 1012.28 1012.68 1012.98 1013.23 1013.47 1013.75 1014.10 1014.51 1014.96 1015.40 1015.80 1016.12 1016.33 1016.43 1016.46 1016.45 1016.45 1016.49 1016.60 1016.78 1017.02 1017.30 1017.60 1017.88
1009.40 1009.09 1008.53 1007.83 1007.11 1006.49 1006.03 1005.77 1005.71 1005.81 1006.00 1006.22 1006.41 1006.55 1006.65 1006.74 1006.86 1007.08 1007.42 1007.92 1008.54 1009.27 1010.03 1010.77 1011.42 1011.97 1012.40 1012.75 1013.05 1013.35 1013.69 1014.09 1014.55 1015.04 1015.51 1015.94 1016.27 1016.50 1016.61 1016.65 1016.63 1016.61 1016.63 1016.72 1016.88 1017.11 1017.39 1017.71 1018.02
1009.21 1008.85 1008.29 1007.62 1006.96 1006.40 1006.00 1005.78 1005.72 1005.77 1005.88 1005.99 1006.07 1006.11 1006.13 1006.17 1006.27 1006.50 1006.87 1007.39 1008.05 1008.79 1009.56 1010.31 1010.98 1011.54 1012.02 1012.41 1012.77 1013.13 1013.53 1013.97 1014.46 1014.97 1015.46 1015.90 1016.25 1016.50 1016.64 1016.70 1016.71 1016.71 1016.74 1016.83 1016.98 1017.22 1017.51 1017.84 1018.18
1009.24 1008.87 1008.31 1007.68 1007.07 1006.56 1006.18 1005.95 1005.84 1005.80 1005.80 1005.79 1005.76 1005.71 1005.68 1005.69 1005.80 1006.04 1006.43 1006.96 1007.61 1008.33 1009.08 1009.80 1010.46 1011.04 1011.54 1011.99 1012.41 1012.83 1013.28 1013.75 1014.26 1014.77 1015.26 1015.69 1016.05 1016.32 1016.50 1016.61 1016.67 1016.73 1016.80 1016.91 1017.09 1017.33 1017.63 1017.98 1018.34
1009.42 1009.03 1008.49 1007.90 1007.35 1006.87 1006.50 1006.24 1006.05 1005.91 1005.78 1005.65 1005.51 1005.39 1005.32 1005.33 1005.45 1005.71 1006.10 1006.62 1007.23 1007.91 1008.60 1009.27 1009.91 1010.49 1011.03 1011.53 1012.02 1012.51 1013.00 1013.50 1014.01 1014.50 1014.96 1015.37 1015.73 1016.01 1016.24 1016.41 1016.54 1016.67 1016.80 1016.97 1017.17 1017.44 1017.75 1018.10 1018.47
1009.61 1009.21 1008.71 1008.19 1007.70 1007.28 1006.92 1006.62 1006.35 1006.10 1005.84 1005.59 1005.36 1005.19 1005.09 1005.09 1005.23 1005.50 1005.88 1006.37 1006.92 1007.52 1008.14 1008.75 1009.36 1009.95 1010.53 1011.10 1011.66 1012.22 1012.76 1013.28 1013.77 1014.23 1014.65 1015.02 1015.35 1015.64 1015.90 1016.14 1016.35 1016.56 1016.77 1016.99 1017.24 1017.52 1017.84 1018.19 1018.56
1009.66 1009.29 1008.87 1008.45 1008.07 1007.73 1007.42 1007.10 1006.78 1006.42 1006.04 1005.68 1005.36 1005.12 1004.99 1005.00 1005.14 1005.40 1005.76 1006.19 1006.67 1007.18 1007.71 1008.26 1008.84 1009.45 1010.08 1010.72 1011.37 1012.00 1012.60 1013.14 1013.62 1014.03 1014.39 1014.71 1015.00 1015.29 1015.57 1015.85 1016.14 1016.42 1016.71 1016.99 1017.27 1017.57 1017.89 1018.23 1018.59
1009.48 1009.18 1008.89 1008.65 1008.44 1008.25 1008.02 1007.74 1007.37 1006.93 1006.45 1005.97 1005.55 1005.24 1005.07 1005.05 1005.17 1005.41 1005.72 1006.09 1006.48 1006.90 1007.34 1007.83 1008.38 1009.01 1009.69 1010.42 1011.16 1011.88 1012.53 1013.10 1013.56 1013.93 1014.23 1014.49 1014.73 1014.99 1015.28 1015.60 1015.94 1016.29 1016.63 1016.96 1017.28 1017.58 1017.90 1018.23 1018.57
1009.04 1008.88 1008.80 1008.81 1008.85 1008.86 1008.78 1008.57 1008.20 1007.70 1007.11 1006.52 1005.98 1005.57 1005.33 1005.25 1005.33 1005.52 1005.78 1006.06 1006.37 1006.69 1007.04 1007.47 1007.99 1008.62 1009.35 1010.16 1010.99 1011.78 1012.50 1013.10 1013.57 1013.91 1014.16 1014.36 1014.55 1014.78 1015.05 1015.39 1015.76 1016.15 1016.54 1016.90 1017.24 1017.55 1017.86 1018.17 1018.50
1008.42 1008.46 1008.67 1008.99 1009.34 1009.63 1009.75 1009.65 1009.30 1008.75 1008.06 1007.34 1006.67 1006.13 1005.78 1005.62 1005.62 1005.74 1005.92 1006.12 1006.33 1006.55 1006.82 1007.17 1007.65 1008.27 1009.03 1009.88 1010.78 1011.65 1012.43 1013.07 1013.55 1013.88 1014.10 1014.26 1014.41 1014.61 1014.87 1015.20 1015.59 1016.01 1016.41 1016.80 1017.15 1017.46 1017.77 1018.07 1018.39
1007.73 1008.04 1008.59 1009.28 1009.98 1010.57 1010.91 1010.94 1010.64 1010.04 1009.25 1008.38 1007.56 1006.88 1006.40 1006.12 1006.03 1006.06 1006.16 1006.27 1006.38 1006.50 1006.67 1006.93 1007.34 1007.92 1008.66 1009.53 1010.46 1011.38 1012.21 1012.89 1013.40 1013.75 1013.97 1014.11 1014.25 1014.43 1014.68 1015.01 1015.40 1015.82 1016.24 1016.63 1016.99 1017.31 1017.61 1017.91 1018.24
1007.11 1007.73 1008.63 1009.69 1010.75 1011.63 1012.20 1012.36 1012.09 1011.45 1010.55 1009.54 1008.56 1007.72 1007.10 1006.71 1006.52 1006.46 1006.48 1006.50 1006.52 1006.54 1006.59 1006.74 1007.05 1007.54 1008.23 1009.06 1009.98 1010.91 1011.77 1012.49 1013.05 1013.43 1013.68 1013.85 1014.00 1014.18 1014.43 1014.76 1015.15 1015.58 1016.00 1016.40 1016.77 1017.09 1017.40 1017.71 1018.05
1006.67 1007.57 1008.80 1010.20 1011.57 1012.71 1013.46 1013.72 1013.48 1012.78 1011.78 1010.64 1009.52 1008.54 1007.79 1007.30 1007.02 1006.89 1006.84 1006.79 1006.73 1006.64 1006.59 1006.61 1006.79 1007.16 1007.73 1008.48 1009.34 1010.25 1011.11 1011.87 1012.46 1012.90 1013.21 1013.43 1013.63 1013.84 1014.11 1014.45 1014.84 1015.27 1015.70 1016.11 1016.48 1016.82 1017.14 1017.47 1017.82
1006.41 1007.56 1009.06 1010.71 1012.30 1013.62 1014.49 1014.82 1014.57 1013.83 1012.75 1011.51 1010.28 1009.20 1008.37 1007.80 1007.47 1007.30 1007.21 1007.11 1006.98 1006.82 1006.65 1006.54 1006.58 1006.80 1007.22 1007.85 1008.62 1009.46 1010.30 1011.07 1011.71 1012.22 1012.60 1012.90 1013.16 1013.42 1013.73 1014.09 1014.50 1014.93 1015.37 1015.79 1016.17 1016.53 1016.87 1017.21 1017.57
1006.31 1007.62 1009.28 1011.07 1012.78 1014.18 1015.10 1015.43 1015.18 1014.40 1013.28 1011.99 1010.71 1009.60 1008.74 1008.16 1007.82 1007.65 1007.55 1007.44 1007.27 1007.04 1006.78 1006.56 1006.45 1006.52 1006.79 1007.27 1007.92 1008.68 1009.47 1010.24 1010.92 1011.49 1011.95 1012.33 1012.66 1012.99 1013.34 1013.73 1014.16 1014.60 1015.05 1015.47 1015.87 1016.24 1016.59 1016.95 1017.31
1006.25 1007.64 1009.34 1011.15 1012.86 1014.24 1015.13 1015.44 1015.17 1014.39 1013.27 1012.00 1010.76 1009.68 1008.87 1008.33 1008.03 1007.90 1007.82 1007.73 1007.56 1007.30 1006.99 1006.68 1006.46 1006.39 1006.51 1006.85 1007.38 1008.04 1008.78 1009.53 1010.23 1010.84 1011.37 1011.82 1012.23 1012.62 1013.01 1013.43 1013.87 1014.32 1014.77 1015.21 1015.61 1016.00 1016.36 1016.71 1017.08
1006.16 1007.52 1009.16 1010.88 1012.47 1013.74 1014.55 1014.81 1014.53 1013.78 1012.74 1011.57 1010.43 1009.47 1008.77 1008.33 1008.12 1008.05 1008.03 1007.98 1007.83 1007.58 1007.25 1006.90 1006.61 1006.45 1006.47 1006.70 1007.12 1007.69 1008.36 1009.07 1009.77 1010.41 1010.98 1011.48 1011.93 1012.36 1012.79 1013.22 1013.67 1014.13 1014.58 1015.01 1015.42 1015.81 1016.17 1016.52 1016.87
1005.98 1007.25 1008.73 1010.26 1011.66 1012.76 1013.44 1013.65 1013.38 1012.72 1011.81 1010.81 1009.85 1009.08 1008.53 1008.22 1008.12 1008.14 1008.19 1008.18 1008.08 1007.86 1007.55 1007.21 1006.91 1006.72 1006.69 1006.85 1007.19 1007.69 1008.30 1008.96 1009.62 1010.25 1010.82 1011.34 1011.81 1012.25 1012.68 1013.12 1013.56 1014.00 1014.45 1014.87 1015.28 1015.66 1016.01 1016.35 1016.67
1005.77 1006.88 1008.15 1009.43 1010.59 1011.49 1012.04 1012.19 1011.97 1011.43 1010.71 1009.93 1009.22 1008.65 1008.29 1008.13 1008.13 1008.22 1008.31 1008.35 1008.29 1008.12 1007.86 1007.57 1007.31 1007.14 1007.12 1007.26 1007.56 1008.00 1008.55 1009.15 1009.75 1010.33 1010.87 1011.36 1011.81 1012.23 1012.64 1013.06 1013.48 1013.91 1014.33 1014.74 1015.14 1015.50 1015.84 1016.15 1016.45
Thickness
5829 5827 5824 5812 5789 5772 5770 5791 5804 5810 5813 5824 5826 5819 5808 5800 5788 5778 5799 5805 5800 5794 5789 5785 5782 5781 5779 5778 5777 5776 5775 5774 5773 5772 5771 5770 5769 5767 5766 5764 5763 5761 5760 5758 5757 5756 5755 5753 5752
5830 5827 5816 5798 5774 5757 5771 5799 5806 5815 5823 5829 5826 5820 5810 5802 5806 5801 5800 5801 5800 5794 5789 5785 5782 5780 5778 5777 5776 5775 5774 5772 5771 5770 5769 5768 5767 5766 5765 5763 5762 5760 5759 5757 5756 5754 5753 5752 5750
5830 5826 5803 5784 5771 5765 5779 5805 5812 5823 5833 5831 5821 5820 5811 5803 5807 5804 5803 5802 5797 5791 5787 5784 5781 5779 5777 5776 5775 5774 5772 5771 5770 5769 5768 5767 5766 5765 5763 5762 5761 5759 5757 5756 5754 5753 5751 5750 5748
5825 5810 5795 5776 5772 5789 5801 5812 5820 5819 5826 5830 5822 5809 5812 5820 5816 5810 5804 5800 5794 5789 5785 5783 5780 5778 5776 5775 5773 5772 5771 5770 5769 5768 5767 5766 5765 5764 5762 5761 5760 5758 5756 5754 5753 5751 5750 5748 5747
5821 5797 5778 5769 5780 5804 5819 5827 5827 5820 5821 5823 5820 5802 5802 5816 5819 5810 5804 5798 5793 5787 5784 5781 5779 5777 5775 5773 5772 5771 5770 5769 5767 5767 5766 5765 5764 5763 5761 5760 5758 5757 5755 5753 5752 5750 5749 5747 5746
5803 5789 5769 5764 5786 5810 5824 5834 5829 5823 5820 5821 5816 5801 5797 5810 5810 5805 5803 5797 5793 5788 5784 5780 5778 5776 5774 5772 5771 5769 5768 5767 5766 5765 5764 5763 5762 5761 5760 5758 5757 5755 5753 5752 5750 5749 5747 5746 5745
5796 5783 5774 5780 5788 5804 5825 5837 5830 5823 5818 5819 5821 5798 5794 5801 5807 5805 5800 5794 5790 5786 5782 5779 5777 5774 5772 5771 5769 5768 5767 5766 5765 5764 5763 5762 5761 5759 5758 5757 5755 5753 5752 5750 5749 5748 5746 5745 5744
5809 5788 5779 5782 5790 5804 5831 5838 5838 5830 5822 5831 5826 5801 5793 5802 5807 5803 5796 5791 5787 5784 5781 5779 5776 5773 5771 5769 5768 5767 5765 5764 5763 5762 5761 5760 5759 5758 5756 5755 5753 5752 5750 5749 5748 5746 5745 5744 5743
5816 5781 5770 5783 5795 5809 5833 5833 5836 5842 5831 5828 5829 5821 5817 5814 5808 5798 5789 5784 5782 5780 5779 5777 5775 5772 5769 5768 5767 5765 5764 5763 5762 5761 5760 5759 5757 5756 5755 5753 5752 5750 5749 5747 5746 5745 5744 5743 5742
5802 5774 5786 5807 5815 5817 5829 5830 5831 5827 5820 5817 5818 5820 5819 5813 5804 5795 5788 5782 5779 5777 5777 5776 5774 5771 5769 5767 5765 5763 5762 5761 5760 5759 5758 5756 5755 5754 5753 5751 5750 5748 5747 5746 5745 5744 5743 5742 5741
5804 5794 5809 5819 5826 5827 5827 5830 5835 5821 5810 5816 5815 5814 5813 5808 5802 5796 5791 5787 5784 5781 5778 5776 5773 5771 5768 5767 5763 5762 5760 5759 5758 5757 5756 5754 5753 5752 5751 5750 5748 5747 5746 5745 5743 5742 5742 5741 5740
5808 5814 5821 5825 5832 5829 5828 5832 5829 5826 5826 5834 5831 5825 5816 5807 5802 5798 5793 5788 5785 5781 5779 5776 5773 5770 5768 5766 5763 5760 5759 5757 5756 5755 5754 5753 5752 5751 5750 5749 5747 5746 5744 5743 5742 5742 5741 5740 5739
5806 5813 5825 5832 5833 5833 5834 5831 5829 5829 5838 5836 5830 5822 5815 5809 5804 5802 5798 5791 5786 5782 5779 5776 5774 5770 5768 5765 5762 5760 5758 5757 5755 5754 5753 5752 5751 5750 5749 5747 5746 5745 5743 5742 5741 5741 5740 5739 5738
5811 5816 5821 5827 5829 5834 5829 5829 5825 5826 5835 5828 5822 5816 5814 5810 5804 5799 5794 5790 5786 5783 5780 5777 5774 5771 5768 5765 5762 5760 5758 5756 5754 5753 5752 5751 5750 5749 5748 5747 5745 5744 5743 5741 5740 5740 5739 5738 5737
5814 5806 5809 5819 5824 5828 5827 5810 5817 5826 5829 5820 5817 5814 5812 5809 5806 5802 5798 5794 5790 5785 5781 5777 5774 5771 5768 5765 5762 5760 5758 5756 5754 5753 5752 5751 5750 5749 5747 5746 5745 5744 5743 5741 5739 5739 5738 5737 5736
5800 5790 5783 5806 5818 5823 5812 5789 5814 5824 5820 5812 5812 5811 5807 5806 5806 5805 5800 5795 5791 5785 5780 5777 5775 5770 5766 5764 5761 5759 5757 5755 5753 5752 5751 5750 5749 5748 5746 5745 5744 5743 5742 5741 5739 5738 5736 5735 5734
5774 5766 5772 5791 5813 5816 5804 5791 5809 5817 5815 5809 5809 5808 5803 5801 5801 5801 5799 5796 5790 5785 5780 5776 5774 5769 5765 5763 5760 5758 5757 5755 5753 5752 5750 5749 5748 5747 5746 5744 5743 5742 5741 5740 5739 5736 5735 5733 5732
5754 5763 5770 5778 5803 5807 5797 5794 5805 5811 5811 5806 5806 5806 5802 5799 5799 5800 5797 5794 5789 5784 5779 5775 5773 5768 5764 5760 5757 5755 5754 5753 5752 5751 5749 5748 5747 5746 5745 5744 5743 5741 5739 5737 5737 5734 5734 5732 5732
5771 5767 5766 5783 5804 5799 5793 5793 5801 5806 5804 5800 5799 5799 5798 5798 5800 5798 5794 5790 5786 5782 5776 5773 5769 5766 5762 5758 5754 5751 5750 5750 5749 5749 5748 5747 5746 5745 5744 5743 5742 5740 5738 5736 5735 5733 5731 5730 5730
5771 5764 5767 5783 5802 5797 5788 5787 5796 5800 5799 5798 5796 5796 5796 5793 5791 5790 5788 5786 5783 5779 5774 5770 5768 5765 5762 5759 5756 5754 5751 5748 5748 5747 5746 5745 5744 5744 5743 5742 5740 5739 5737 5735 5734 5732 5729 5729 5729
5769 5766 5769 5773 5790 5793 5783 5771 5779 5792 5796 5798 5799 5797 5796 5794 5788 5785 5783 5782 5780 5777 5773 5770 5767 5764 5762 5758 5754 5750 5746 5743 5741 5742 5743 5743 5743 5743 5742 5740 5739 5738 5737 5734 5733 5732 5730 5726 5727
5760 5784 5785 5781 5769 5757 5768 5742 5762 5776 5782 5788 5792 5792 5791 5793 5790 5785 5782 5779 5778 5776 5774 5770 5766 5762 5759 5756 5752 5749 5745 5741 5742 5742 5741 5741 5741 5741 5740 5739 5738 5737 5736 5734 5733 5732 5731 5728 5724
5775 5792 5787 5782 5767 5751 5752 5741 5749 5766 5767 5776 5785 5789 5790 5789 5787 5783 5781 5779 5778 5776 5771 5767 5763 5760 5757 5755 5751 5748 5745 5743 5742 5740 5739 5738 5739 5739 5739 5738 5737 5735 5734 5733 5732 5731 5730 5729 5726
5792 5784 5774 5762 5746 5726 5739 5735 5737 5753 5764 5774 5783 5787 5786 5786 5784 5781 5779 5777 5774 5772 5769 5765 5760 5757 5755 5752 5749 5747 5745 5742 5739 5737 5736 5736 5735 5736 5736 5736 5735 5734 5733 5732 5731 5730 5729 5728 5727
5782 5751 5725 5723 5711 5716 5739 5734 5736 5764 5775 5779 5781 5784 5785 5782 5778 5775 5773 5770 5769 5767 5764 5761 5756 5753 5752 5749 5747 5746 5744 5742 5739 5737 5735 5734 5733 5733 5734 5734 5733 5732 5732 5731 5730 5729 5728 5727 5726
5769 5752 5721 5709 5707 5715 5730 5726 5744 5768 5777 5781 5783 5783 5781 5777 5775 5773 5771 5768 5766 5763 5761 5758 5754 5750 5749 5747 5745 5744 5743 5741 5739 5738 5736 5734 5734 5734 5733 5733 5732 5731 5730 5730 5729 5728 5727 5726 5725
5765 5752 5752 5727 5718 5710 5715 5731 5748 5766 5769 5773 5774 5773 5771 5773 5772 5770 5767 5764 5762 5760 5759 5757 5753 5749 5748 5747 5744 5742 5741 5740 5738 5737 5735 5734 5733 5732 5731 5731 5730 5729 5729 5728 5727 5726 5725 5724 5724
5780 5767 5739 5721 5704 5699 5710 5720 5726 5745 5754 5760 5763 5764 5766 5768 5767 5765 5764 5762 5761 5759 5758 5756 5753 5750 5748 5747 5745 5743 5741 5739 5737 5735 5733 5732 5731 5731 5730 5730 5729 5728 5727 5726 5724 5723 5723 5722 5722
5766 5759 5743 5724 5720 5703 5697 5712 5748 5749 5754 5755 5756 5759 5761 5762 5761 5761 5761 5760 5758 5756 5754 5752 5751 5748 5746 5746 5744 5742 5740 5738 5736 5733 5732 5731 5730 5730 5729 5728 5727 5726 5725 5723 5722 5721 5721 5719 5719
5773 5761 5744 5724 5718 5715 5705 5715 5758 5756 5758 5758 5757 5759 5759 5759 5759 5758 5756 5755 5754 5751 5750 5749 5748 5746 5745 5745 5743 5740 5738 5737 5734 5732 5732 5731 5730 5729 5729 5727 5726 5724 5723 5721 5720 5719 5719 5718 5717